DW7371 Lopez Island WA US current weather conditions

sailwx.info

Wind from 170 at 3 knots gusting 5

Air temperature 12.8° C
Dewpoint 12.5° C

Last reported at 2019-Sep-16 15:57 UTC.
Time now 2019-Sep-16 17:05 UTC

Location: N 48°32' W 122°52'.
View on Google Maps.

See reports from other nearby stations

  
Tides and Currents Weather Stations Pressure Air Temp Water Temp Dewpoint Dewpoint Depression Visibility Wind Speed Wind Dir Waves Ship Positions
date/time (UTC)wind fromknots sea level pressurealtimeterstation pressurevisibilityair tempwater tempwave heightnotes
2019-Sep-16 15:57 170 3 gusting 5 12.8
2019-Sep-16 15:47 180 2 gusting 4 12.8
2019-Sep-16 15:37 154 3 gusting 4 12.8
2019-Sep-16 15:27 158 2 gusting 3 12.8
2019-Sep-16 15:17 158 12.8
2019-Sep-16 15:07 158 12.8
2019-Sep-16 14:57 158 12.8
2019-Sep-16 14:47 158 12.8
2019-Sep-16 14:37 158 0 gusting 3 12.8
2019-Sep-16 14:27 158 2 gusting 3 12.8
2019-Sep-16 14:17 158 2 gusting 4 12.8
2019-Sep-16 14:07 158 2 gusting 3 12.8
2019-Sep-16 13:57 154 1 gusting 5 12.8
2019-Sep-16 13:47 148 4 gusting 5 12.8
2019-Sep-16 13:37 087 2 gusting 2 12.8
2019-Sep-16 13:27 087 12.8
2019-Sep-16 13:17 087 12.8
2019-Sep-16 13:07 087 12.8
2019-Sep-16 12:57 087 12.8
2019-Sep-16 12:47 087 0 gusting 2 12.8
2019-Sep-16 12:37 087 12.8
2019-Sep-16 12:27 087 0 gusting 1 12.8
2019-Sep-16 12:17 087 0 gusting 2 12.8
2019-Sep-16 12:07 087 12.8
2019-Sep-16 11:57 094 2 gusting 5 13.3
2019-Sep-16 11:47 088 3 gusting 3 12.8
2019-Sep-16 11:37 088 12.8
2019-Sep-16 11:27 088 12.8
2019-Sep-16 11:17 088 0 gusting 3 12.8
2019-Sep-16 11:07 088 2 gusting 2 12.8
2019-Sep-16 10:57 088 12.8
2019-Sep-16 10:47 088 12.8
2019-Sep-16 10:37 088 12.8
2019-Sep-16 10:27 088 12.8
2019-Sep-16 10:17 088 12.8
2019-Sep-16 10:07 088 0 gusting 2 12.8
2019-Sep-16 09:56 088 2 gusting 3 12.8
2019-Sep-16 09:46 088 12.8
2019-Sep-16 09:36 088 12.8
2019-Sep-16 09:26 088 12.8
2019-Sep-16 09:16 088 12.8
2019-Sep-16 09:06 088 12.8
2019-Sep-16 08:56 090 1 gusting 3 12.8
2019-Sep-16 08:46 090 12.8
2019-Sep-16 08:36 090 12.8
2019-Sep-16 08:26 090 12.8
2019-Sep-16 08:16 089 12.8
2019-Sep-16 08:06 098 12.8
2019-Sep-16 07:56 101 0 gusting 4 12.8
2019-Sep-16 07:46 101 12.8
2019-Sep-16 07:36 084 0 gusting 3 12.8
2019-Sep-16 07:26 084 12.8
2019-Sep-16 07:16 084 1 gusting 6 12.8
2019-Sep-16 07:06 102 3 gusting 4 12.8
2019-Sep-16 06:56 105 12.8
2019-Sep-16 06:46 105 12.8
2019-Sep-16 06:36 108 0 gusting 5 12.8
2019-Sep-16 06:26 137 2 gusting 4 12.8
2019-Sep-16 06:16 112 4 gusting 8 12.8
2019-Sep-16 06:06 103 8 gusting 10 12.8
2019-Sep-16 05:56 112 2 gusting 4 12.8
2019-Sep-16 05:46 112 12.8
2019-Sep-16 05:36 112 2 gusting 4 12.8
2019-Sep-16 05:26 100 13.3
2019-Sep-16 05:16 100 13.3
2019-Sep-16 05:06 100 13.3
2019-Sep-16 04:56 100 0 gusting 1 13.3
2019-Sep-16 04:46 100 13.3
2019-Sep-16 04:36 097 1 gusting 4 13.3
2019-Sep-16 04:26 101 2 gusting 3 13.3
2019-Sep-16 04:16 100 1 gusting 6 13.3
2019-Sep-16 04:06 112 6 gusting 7 13.9
2019-Sep-16 03:56 105 6 gusting 7 13.9
2019-Sep-16 03:46 090 3 gusting 6 13.9
2019-Sep-16 03:36 104 2 gusting 7 13.9
2019-Sep-16 03:26 107 6 gusting 9 13.9
2019-Sep-16 03:16 132 7 gusting 10 13.9
2019-Sep-16 03:06 134 8 gusting 11 13.9
2019-Sep-16 02:56 147 4 gusting 10 13.9
2019-Sep-16 02:46 133 9 gusting 9 14.4
2019-Sep-16 02:36 146 5 gusting 7 14.4
2019-Sep-16 02:26 152 5 gusting 5 14.4
2019-Sep-16 02:16 143 3 gusting 7 14.4
2019-Sep-16 02:06 124 4 gusting 8 14.4
2019-Sep-16 01:56 120 6 gusting 8 14.4
2019-Sep-16 01:46 114 3 gusting 9 14.4
2019-Sep-16 01:36 093 0 gusting 9 15.0
2019-Sep-16 01:26 118 7 gusting 9 15.0
2019-Sep-16 01:16 101 6 gusting 8 15.0
2019-Sep-16 01:06 106 0 gusting 6 15.0
2019-Sep-16 00:56 097 6 gusting 8 15.0
2019-Sep-16 00:46 101 5 gusting 8 15.0
2019-Sep-16 00:36 106 3 gusting 6 15.0
2019-Sep-16 00:26 095 2 gusting 6 15.0
2019-Sep-16 00:16 099 5 gusting 10 15.0
2019-Sep-16 00:06 110 3 gusting 6 15.0
2019-Sep-15 23:55 109 6 gusting 9 15.0
2019-Sep-15 23:45 101 6 gusting 9 15.0
2019-Sep-15 23:35 097 0 gusting 8 15.0
2019-Sep-15 23:25 122 1 gusting 6 15.0
2019-Sep-15 23:15 131 2 gusting 10 15.0
2019-Sep-15 23:05 142 5 gusting 9 15.0
2019-Sep-15 22:55 137 4 gusting 8 15.0
2019-Sep-15 22:45 116 6 gusting 11 14.4
2019-Sep-15 22:35 118 7 gusting 12 14.4
2019-Sep-15 22:25 139 5 gusting 11 14.4
2019-Sep-15 22:15 102 5 gusting 14 15.0
2019-Sep-15 22:05 141 13 gusting 17 15.0
2019-Sep-15 21:55 143 12 gusting 15 15.0
2019-Sep-15 21:45 146 11 gusting 16 15.0
2019-Sep-15 21:35 158 12 gusting 16 15.0
2019-Sep-15 21:25 162 10 gusting 18 14.4
2019-Sep-15 21:15 146 8 gusting 17 14.4
2019-Sep-15 21:05 150 9 gusting 14 14.4
2019-Sep-15 20:55 143 8 gusting 16 14.4
2019-Sep-15 20:45 149 10 gusting 13 14.4
2019-Sep-15 20:35 168 10 gusting 15 14.4
2019-Sep-15 20:25 156 10 gusting 13 14.4
2019-Sep-15 20:15 153 11 gusting 16 14.4
2019-Sep-15 20:05 160 14 gusting 17 14.4
2019-Sep-15 19:55 153 14 gusting 19 14.4
2019-Sep-15 19:45 160 14 gusting 19 14.4
2019-Sep-15 19:35 153 14 gusting 19 14.4
2019-Sep-15 19:25 164 16 gusting 19 14.4
2019-Sep-15 19:15 170 14 gusting 19 14.4
2019-Sep-15 19:05 158 14 gusting 17 14.4
2019-Sep-15 18:55 161 14 gusting 17 14.4
2019-Sep-15 18:45 162 8 gusting 13 14.4
2019-Sep-15 18:35 160 6 gusting 11 13.9
2019-Sep-15 18:25 145 9 gusting 11 13.9
2019-Sep-15 18:15 149 7 gusting 11 13.9
2019-Sep-15 18:05 137 7 gusting 10 13.9
2019-Sep-15 17:55 142 8 gusting 10 13.9
2019-Sep-15 17:45 136 8 gusting 10 13.9
2019-Sep-15 17:35 122 8 gusting 10 13.9
2019-Sep-15 17:25 127 6 gusting 8 13.9
2019-Sep-15 17:15 129 8 gusting 9 14.4
2019-Sep-15 17:05 103 5 gusting 7 13.9
2019-Sep-15 16:55 145 5 gusting 6 13.9
2019-Sep-15 16:45 144 4 gusting 10 13.9
2019-Sep-15 16:35 133 3 gusting 9 13.9
2019-Sep-15 16:25 145 8 gusting 8 13.9
2019-Sep-15 16:15 147 5 gusting 9 13.9
2019-Sep-15 16:05 149 5 gusting 7 13.9
2019-Sep-15 15:55 153 5 gusting 7 13.9
2019-Sep-15 15:45 137 5 gusting 8 13.9
2019-Sep-15 15:35 143 5 gusting 7 13.9
2019-Sep-15 15:25 141 5 gusting 8 13.9
2019-Sep-15 15:15 137 5 gusting 9 13.9
2019-Sep-15 15:05 144 9 gusting 11 13.9
2019-Sep-15 14:55 137 9 gusting 11 13.9
2019-Sep-15 14:45 129 7 gusting 10 13.9
2019-Sep-15 14:35 143 7 gusting 11 13.9
2019-Sep-15 14:25 149 5 gusting 10 13.3
2019-Sep-15 14:15 140 9 gusting 12 13.9
2019-Sep-15 14:05 147 9 gusting 13 13.9
2019-Sep-15 13:55 135 5 gusting 13 13.9
2019-Sep-15 13:44 128 11 gusting 12 13.3
2019-Sep-15 13:34 126 6 gusting 11 13.3
2019-Sep-15 13:24 139 8 gusting 10 13.3
2019-Sep-15 13:14 139 7 gusting 11 13.3
2019-Sep-15 13:04 153 3 gusting 6 13.3
2019-Sep-15 12:54 131 13.3
2019-Sep-15 12:44 150 4 gusting 6 13.3
2019-Sep-15 12:34 153 4 gusting 10 13.3
2019-Sep-15 12:24 147 5 gusting 6 13.3
2019-Sep-15 12:14 153 5 gusting 6 13.3
2019-Sep-15 12:04 160 3 gusting 4 13.3
2019-Sep-15 11:54 158 2 gusting 5 13.3
2019-Sep-15 11:44 147 3 gusting 8 13.3
2019-Sep-15 11:34 129 6 gusting 7 13.9
2019-Sep-15 11:24 123 4 gusting 7 13.9
2019-Sep-15 11:14 136 3 gusting 7 13.9
2019-Sep-15 11:04 006 13.9
2019-Sep-15 10:54 346 13.9
2019-Sep-15 10:44 358 5 gusting 6 13.9
2019-Sep-15 10:34 185 1 gusting 2 14.4
2019-Sep-15 10:24 185 14.4
2019-Sep-15 10:14 144 4 gusting 10 14.4
2019-Sep-15 10:04 185 9 gusting 12 14.4
2019-Sep-15 09:54 175 11 gusting 14 14.4
2019-Sep-15 09:44 175 10 gusting 14 14.4
2019-Sep-15 09:34 151 8 gusting 12 14.4
2019-Sep-15 09:24 133 6 gusting 11 14.4
2019-Sep-15 09:14 175 8 gusting 15 14.4
2019-Sep-15 09:04 175 10 gusting 18 14.4
2019-Sep-15 08:54 162 13 gusting 19 13.9
2019-Sep-15 08:44 156 12 gusting 14 14.4
2019-Sep-15 08:34 156 10 gusting 13 13.9
2019-Sep-15 08:24 149 8 gusting 10 14.4
2019-Sep-15 08:14 152 8 gusting 11 14.4
2019-Sep-15 08:04 141 3 gusting 12 14.4
2019-Sep-15 07:54 151 7 gusting 11 14.4
2019-Sep-15 07:44 135 9 gusting 11 14.4
2019-Sep-15 07:34 151 7 gusting 19 14.4
2019-Sep-15 07:24 162 13 gusting 20 14.4
2019-Sep-15 07:14 148 11 gusting 15 14.4
2019-Sep-15 07:04 158 12 gusting 13 14.4
2019-Sep-15 06:54 156 12 gusting 15 14.4
2019-Sep-15 06:44 166 10 gusting 18 14.4
2019-Sep-15 06:34 135 14 gusting 17 14.4
2019-Sep-15 06:24 122 10 gusting 13 14.4
2019-Sep-15 06:14 153 5 gusting 11 15.0
2019-Sep-15 06:04 162 10 gusting 13 15.0
2019-Sep-15 05:54 159 11 gusting 13 15.0
2019-Sep-15 05:44 156 11 gusting 17 15.0
2019-Sep-15 05:34 162 14 gusting 19 15.0
2019-Sep-15 05:24 144 13 gusting 20 15.0
2019-Sep-15 05:14 158 14 gusting 20 15.0
2019-Sep-15 05:04 147 11 gusting 18 15.0
2019-Sep-15 04:54 151 18 gusting 22 15.0
2019-Sep-15 04:44 145 19 gusting 19 15.0
2019-Sep-15 04:34 133 13 gusting 16 15.0
2019-Sep-15 04:24 143 10 gusting 13 15.0
2019-Sep-15 04:14 153 12 gusting 16 15.6
2019-Sep-15 04:04 156 13 gusting 16 15.6
2019-Sep-15 03:54 148 14 gusting 19 15.6
2019-Sep-15 03:43 153 13 gusting 23 15.6
2019-Sep-15 03:33 142 16 gusting 26 15.6
2019-Sep-15 03:23 149 22 gusting 25 15.6
2019-Sep-15 03:13 149 17 gusting 24 15.6
2019-Sep-15 03:03 168 19 gusting 26 16.1
2019-Sep-15 02:53 152 19 gusting 27 16.1
2019-Sep-15 02:43 161 19 gusting 26 16.1
2019-Sep-15 02:33 171 23 gusting 24 16.7
2019-Sep-15 02:23 163 17 gusting 24 16.7
2019-Sep-15 02:13 160 13 gusting 26 16.7
2019-Sep-15 02:03 145 17 gusting 25 16.7
2019-Sep-15 01:53 141 19 gusting 29 16.1
2019-Sep-15 01:43 156 19 gusting 25 16.7
2019-Sep-15 01:33 156 16 gusting 26 16.7
2019-Sep-15 01:23 156 11 gusting 19 17.2
2019-Sep-15 01:13 155 15 gusting 24 17.2
2019-Sep-15 01:03 144 14 gusting 21 17.2
2019-Sep-15 00:53 152 21 gusting 24 17.2
2019-Sep-15 00:43 150 15 gusting 25 17.2
2019-Sep-15 00:33 141 20 gusting 21 17.2
2019-Sep-15 00:23 146 15 gusting 20 17.2
2019-Sep-15 00:13 131 11 gusting 22 17.2
2019-Sep-15 00:03 151 14 gusting 22 17.2
2019-Sep-14 23:53 131 19 gusting 23 17.2
2019-Sep-14 23:43 144 15 gusting 22 17.2
2019-Sep-14 23:33 156 15 gusting 24 17.2
2019-Sep-14 23:23 155 18 gusting 21 17.2
2019-Sep-14 23:13 137 17 gusting 21 17.2
2019-Sep-14 23:03 142 14 gusting 22 16.7
2019-Sep-14 22:53 153 20 gusting 25 16.7
2019-Sep-14 22:43 153 13 gusting 24 16.7
2019-Sep-14 22:33 126 17 gusting 24 16.7
2019-Sep-14 22:23 155 13 gusting 24 16.7
2019-Sep-14 22:13 156 11 gusting 23 16.7
2019-Sep-14 22:03 159 13 gusting 20 16.7
2019-Sep-14 21:53 159 18 gusting 23 16.7
2019-Sep-14 21:43 118 14 gusting 21 17.2
2019-Sep-14 21:33 149 19 gusting 22 16.7
2019-Sep-14 21:23 161 15 gusting 19 16.7
2019-Sep-14 21:13 160 15 gusting 22 16.7
2019-Sep-14 21:03 142 14 gusting 22 16.7
2019-Sep-14 20:53 151 15 gusting 22 17.2
2019-Sep-14 20:43 156 16 gusting 19 17.2
2019-Sep-14 20:33 137 17 gusting 23 17.2
2019-Sep-14 20:23 141 17 gusting 21 16.7
2019-Sep-14 20:13 137 19 gusting 21 16.7
2019-Sep-14 20:03 143 17 gusting 19 16.7
2019-Sep-14 19:53 142 13 gusting 19 16.7
2019-Sep-14 19:43 139 15 gusting 19 16.7
2019-Sep-14 19:33 147 9 gusting 17 16.7
2019-Sep-14 19:23 153 13 gusting 18 16.7
2019-Sep-14 19:13 159 13 gusting 18 16.7
2019-Sep-14 19:03 150 13 gusting 16 16.1
2019-Sep-14 18:53 144 13 gusting 19 16.1
2019-Sep-14 18:43 145 13 gusting 17 16.1
2019-Sep-14 18:33 148 15 gusting 18 16.1
2019-Sep-14 18:23 140 14 gusting 18 15.6
2019-Sep-14 18:13 142 13 gusting 17 15.6
2019-Sep-14 18:03 137 13 gusting 15 15.6
2019-Sep-14 17:53 143 10 gusting 15 15.0
2019-Sep-14 17:43 141 9 gusting 14 15.0
2019-Sep-14 17:32 099 9 gusting 13 15.0
2019-Sep-14 17:22 128 12 gusting 13 15.0
2019-Sep-14 17:12 145 5 gusting 13 15.0
2019-Sep-14 17:02 145 10 gusting 13 15.0